Wind_Speed
28 27 26 17 18 17 20 10 9 13 21 25 20 19 5 13 13 13 17 18 16 19 15 14 15 16 17 17 14 13 11 12 13 15 19 22 26 22 21 25 24 24 25 19
31 35 28 22 21 20 18 17 16 5 9 13 10 6 22 21 18 13 16 18 16 17 21 20 23 19 21 22 21 19 17 17 16 17 17 18 20 25 23 21 20 18 22 22
31 41 32 26 24 21 18 19 17 13 14 7 14 18 21 22 5 12 17 16 19 27 24 23 26 20 20 21 22 18 19 22 21 16 14 17 16 19 23 21 16 14 18 25
34 38 35 32 30 29 30 24 23 23 25 20 13 24 16 14 15 16 10 12 23 28 25 24 25 20 20 17 18 19 22 19 15 13 11 15 17 20 21 18 8 7 14 20
34 34 33 32 37 34 36 31 29 33 34 29 27 31 19 17 24 18 20 20 16 17 22 24 31 23 19 15 18 18 16 9 6 7 7 11 17 26 27 29 20 25 18 19
34 34 32 32 34 29 29 27 29 31 30 39 29 23 23 15 22 23 22 31 25 18 20 23 29 23 20 14 18 9 9 9 3 5 5 10 19 24 31 37 25 17 11 11
35 35 34 32 33 33 31 30 32 30 30 33 28 27 24 26 24 30 30 34 31 18 19 21 22 20 17 15 11 5 6 9 7 7 6 4 10 25 26 28 27 20 17 17
36 36 35 34 33 37 33 34 33 31 32 33 26 26 26 34 27 34 28 29 36 24 18 21 20 20 19 13 7 6 4 10 10 12 13 11 5 9 23 29 35 25 27 24
41 40 40 37 36 37 36 33 35 31 34 34 20 29 34 35 39 39 29 33 26 31 27 20 17 19 19 16 10 13 10 11 13 12 13 12 10 11 16 25 25 27 29 30
42 43 41 39 38 36 37 38 36 29 33 33 29 28 38 32 40 45 36 30 41 36 29 21 17 16 20 20 16 17 12 16 11 6 8 12 12 8 11 14 23 28 22 21
41 38 41 39 36 38 41 37 35 33 33 32 31 34 36 43 47 51 44 30 31 39 38 23 18 17 20 22 20 24 20 17 15 10 0 8 8 6 5 11 17 23 29 23
40 38 37 38 35 39 36 36 35 31 32 32 38 27 40 38 37 44 49 51 36 42 49 23 19 18 23 23 22 32 30 24 21 23 14 11 7 3 7 4 11 22 32 40
36 34 35 33 34 34 39 38 34 29 31 29 35 28 39 37 36 36 37 36 37 38 41 22 21 21 24 22 25 29 36 31 27 26 24 18 16 14 13 9 10 18 26 35
38 37 36 34 40 39 37 33 31 28 27 31 30 38 35 40 39 38 26 15 26 24 31 24 22 24 24 21 22 27 36 40 37 33 28 26 22 20 19 13 12 15 21 30
35 36 36 40 36 32 33 32 30 30 31 30 33 36 43 37 31 17 16 10 21 28 35 29 24 20 21 18 20 25 26 35 43 42 40 37 31 28 25 23 16 16 18 22
26 33 38 40 35 35 33 32 35 34 32 31 35 38 43 34 29 23 22 15 23 29 39 29 20 22 23 19 22 28 26 24 31 37 31 34 37 37 25 23 19 15 16 15
35 33 38 39 40 39 34 31 37 35 34 33 34 38 44 37 32 26 21 18 23 34 38 29 18 22 22 20 23 27 20 20 24 27 24 28 29 21 23 20 17 14 14 10
42 42 41 40 43 36 35 35 39 36 35 34 35 39 39 40 28 20 22 28 29 31 40 24 20 21 25 21 23 22 14 19 19 24 22 26 26 25 24 23 17 15 14 14
48 48 39 38 37 33 37 38 38 37 36 37 39 36 33 36 28 27 30 27 31 33 32 26 21 17 28 25 23 22 15 19 18 23 24 27 30 25 23 23 24 19 17 18
58 47 38 29 26 26 38 36 37 35 38 33 32 34 33 31 29 28 29 31 30 30 28 30 22 21 27 24 22 22 17 19 17 18 19 22 25 27 27 28 25 20 22 26
65 51 42 31 27 30 33 37 41 38 32 33 35 34 30 31 29 29 32 32 28 31 31 27 24 23 31 26 23 21 20 20 20 20 18 19 21 24 26 27 23 23 23 31
67 56 51 41 29 22 20 36 39 36 35 30 31 33 30 30 32 30 30 33 30 30 26 28 27 24 29 28 22 23 25 24 23 20 17 17 20 21 23 21 22 20 24 35
71 63 57 57 42 32 32 32 29 30 30 30 31 32 31 30 33 30 29 33 32 31 28 29 27 24 31 28 25 27 27 27 24 21 18 18 18 20 17 17 15 20 29 33
77 68 61 60 48 43 46 21 31 30 27 26 27 27 31 29 29 32 28 30 30 31 33 29 26 27 33 31 26 30 28 28 27 21 18 16 16 17 18 18 20 26 34 33
78 70 64 62 66 60 47 42 27 26 32 25 41 36 29 26 29 29 30 30 29 30 33 32 30 30 36 32 28 28 25 25 22 20 15 13 17 22 21 19 20 24 27 28
80 75 70 66 52 34 30 40 43 43 36 50 43 41 31 28 31 31 31 28 28 30 34 33 33 33 37 33 30 29 27 28 27 25 17 16 22 25 25 24 21 18 15 14
Wind_Direction
234 230 221 218 217 215 237 248 260 216 315 321 303 305 283 350 340 334 336 320 304 300 308 302 291 295 297 299 295 268 249 256 257 252 241 236 232 227 217 220 231 235 230 227
239 240 228 208 216 221 213 199 247 262 298 326 334 321 287 298 303 320 325 321 308 304 306 301 310 289 283 289 296 291 270 282 282 263 235 226 219 221 212 214 218 226 231 234
234 244 239 226 228 216 224 224 234 206 174 268 213 230 231 223 278 298 293 300 305 303 311 320 327 315 303 296 298 296 287 290 287 266 230 215 207 201 207 202 213 221 230 243
239 244 241 233 233 235 228 238 231 222 226 247 223 222 227 209 256 270 256 326 321 309 307 316 323 321 310 312 306 299 301 302 282 264 226 204 194 183 173 162 185 288 245 233
240 241 246 241 240 230 243 237 236 223 227 245 258 230 197 233 241 269 273 278 300 289 305 308 323 315 307 323 318 319 317 327 312 264 225 189 191 185 176 166 163 215 244 246
242 242 242 242 245 243 238 234 229 232 231 241 220 228 257 265 280 289 257 274 283 289 298 299 318 308 301 317 320 310 341 3 14 330 284 190 172 180 187 187 181 215 223 259
239 243 239 236 240 241 240 234 232 236 240 240 225 226 235 236 237 247 250 268 262 266 291 303 310 294 284 295 309 287 355 43 55 74 65 275 183 174 185 191 184 184 171 203
237 239 239 236 233 239 237 237 239 241 240 242 223 218 220 224 239 239 252 256 253 265 283 299 298 277 269 273 274 217 117 114 82 79 75 80 125 174 170 175 185 195 197 186
238 238 237 239 238 242 241 244 245 240 241 245 222 233 214 215 226 229 244 247 241 257 285 281 282 267 260 265 238 196 174 153 115 85 65 72 84 141 197 189 195 207 209 210
243 242 243 243 241 243 246 243 246 243 248 249 245 236 226 216 224 232 231 247 258 254 278 282 259 255 251 253 227 213 194 177 163 127 58 52 88 114 182 207 210 207 203 198
242 242 243 242 243 240 243 246 247 244 246 248 247 235 238 223 231 234 231 200 242 262 282 276 256 247 247 254 232 221 212 212 207 193 154 28 63 76 174 191 208 211 191 205
242 239 242 244 240 242 245 248 245 245 244 241 244 227 241 242 237 240 236 223 235 263 274 259 248 232 241 250 246 225 222 226 226 228 235 284 323 323 302 235 210 215 209 212
240 239 238 239 242 241 241 239 243 242 243 244 247 239 238 245 247 251 252 250 243 243 253 254 244 233 236 242 245 243 230 228 223 219 242 264 278 302 303 275 260 233 232 229
236 235 235 236 238 238 238 239 238 236 239 241 243 247 224 239 243 245 252 227 225 225 248 239 229 241 242 242 241 244 234 235 237 235 242 257 270 283 288 267 263 264 241 238
243 239 237 239 240 242 240 239 240 236 232 233 239 247 254 241 244 256 269 220 229 243 241 228 218 230 243 241 242 251 245 245 243 236 244 250 256 262 275 269 270 279 268 253
254 252 243 239 238 239 234 234 235 233 230 229 237 243 253 257 258 259 255 222 228 235 250 250 227 216 235 243 250 254 257 248 240 241 244 243 246 257 255 260 263 276 275 250
244 238 242 240 237 236 234 230 232 232 232 230 237 244 255 246 250 258 258 266 257 249 249 256 242 226 234 243 256 261 263 239 239 242 239 228 230 239 246 252 261 266 265 221
242 238 232 228 236 234 235 228 235 229 232 234 238 245 251 260 257 242 237 241 240 240 251 251 244 226 235 250 244 254 241 229 232 229 232 221 224 236 238 239 252 255 247 175
233 237 237 237 238 233 237 234 234 239 231 237 238 242 250 257 261 258 246 246 245 243 249 256 251 232 234 242 236 245 207 225 219 221 223 221 228 236 244 246 253 254 240 209
226 225 227 220 229 239 243 245 239 239 243 240 245 248 247 250 250 255 254 245 243 249 250 248 236 238 245 229 237 238 213 220 207 207 213 219 230 242 255 260 253 239 232 220
225 223 217 210 217 237 229 230 238 235 235 241 242 243 241 249 251 247 249 245 242 244 241 240 231 226 237 237 232 225 209 212 205 202 210 224 234 240 247 251 256 253 234 212
227 218 217 211 201 204 214 231 241 236 235 240 250 254 255 254 254 249 250 252 250 250 244 243 235 222 227 239 229 215 209 208 211 220 229 234 240 242 245 251 251 243 218 197
219 218 217 216 192 188 195 237 247 235 235 235 242 252 253 256 259 257 251 253 246 242 236 236 231 226 224 234 226 220 209 210 212 214 219 228 237 236 237 232 226 210 194 189
216 214 210 212 199 197 215 213 224 225 241 240 241 254 260 254 261 265 259 257 255 249 241 242 238 231 229 233 226 217 217 210 206 210 224 238 236 219 199 199 195 192 187 195
216 214 212 212 208 218 228 235 229 224 226 238 242 254 261 254 260 264 262 262 254 251 248 241 235 235 234 234 230 217 215 201 197 205 228 239 213 202 191 187 183 184 190 202
211 211 214 215 214 218 232 247 247 221 205 214 231 240 259 261 261 257 258 255 256 253 248 245 239 237 236 231 227 216 208 200 194 200 213 190 175 165 160 165 170 178 189 200
Height
10968 10971 10975 10980 10980 10982 10984 10986 10983 10984 10982 10982 10985 10984 10981 10982 10979 10978 10978 10979 10981 10982 10980 10979 10979 10977 10975 10976 10976 10975 10976 10976 10974 10974 10974 10976 10979 10983 10987 10992 10995 10999 11005 11006
10963 10960 10969 10977 10978 10977 10978 10983 10981 10983 10981 10983 10986 10983 10976 10982 10986 10981 10979 10977 10979 10981 10980 10978 10977 10975 10974 10973 10972 10971 10972 10972 10972 10970 10971 10973 10975 10977 10983 10987 10990 10996 11001 11003
10958 10952 10962 10970 10971 10972 10971 10978 10979 10982 10982 10979 10985 10986 10974 10977 10977 10980 10980 10977 10979 10981 10981 10979 10975 10972 10970 10969 10968 10967 10968 10969 10967 10964 10967 10968 10972 10972 10977 10985 10989 10996 10998 11000
10949 10947 10954 10963 10966 10968 10971 10972 10974 10981 10973 10973 10973 10974 10971 10968 10973 10979 10976 10974 10978 10983 10981 10979 10974 10971 10967 10966 10965 10964 10964 10964 10960 10960 10963 10968 10970 10973 10978 10985 10992 10994 10996 10998
10939 10942 10945 10951 10955 10963 10964 10968 10965 10964 10973 10971 10964 10966 10966 10967 10967 10968 10970 10971 10975 10978 10982 10977 10972 10969 10966 10965 10964 10963 10963 10962 10959 10958 10961 10965 10967 10970 10977 10983 10987 10985 10996 11002
10931 10934 10939 10943 10945 10953 10957 10959 10961 10963 10968 10957 10969 10968 10964 10964 10965 10966 10966 10969 10972 10974 10977 10975 10970 10965 10962 10962 10963 10962 10962 10962 10958 10958 10960 10963 10964 10967 10973 10979 10987 10993 10996 11001
10922 10926 10931 10936 10939 10943 10948 10952 10955 10958 10958 10955 10963 10961 10962 10968 10964 10967 10968 10966 10968 10966 10970 10970 10968 10965 10962 10962 10963 10963 10964 10962 10960 10957 10959 10961 10965 10965 10967 10976 10982 10989 10994 11001
10914 10919 10922 10927 10931 10933 10939 10943 10948 10951 10949 10946 10956 10959 10960 10958 10958 10958 10959 10959 10962 10964 10965 10964 10964 10963 10961 10961 10964 10965 10965 10964 10960 10960 10959 10958 10961 10966 10970 10971 10977 10981 10987 10991
10905 10909 10911 10917 10921 10925 10930 10935 10936 10941 10939 10938 10948 10945 10946 10948 10951 10951 10950 10950 10955 10960 10960 10960 10959 10960 10959 10959 10961 10965 10966 10964 10961 10960 10961 10963 10962 10963 10967 10971 10971 10976 10982 10985
10893 10898 10904 10909 10913 10918 10921 10922 10926 10933 10931 10932 10935 10937 10935 10944 10942 10940 10949 10952 10945 10949 10956 10956 10956 10957 10957 10956 10959 10962 10964 10964 10961 10961 10962 10964 10967 10963 10961 10964 10969 10974 10977 10979
10882 10889 10894 10898 10905 10908 10909 10914 10919 10921 10924 10925 10926 10927 10932 10929 10932 10937 10947 10950 10942 10938 10947 10951 10951 10952 10953 10952 10956 10958 10962 10963 10963 10961 10961 10963 10966 10967 10964 10964 10966 10970 10974 10978
10872 10879 10884 10889 10895 10897 10902 10906 10909 10914 10915 10916 10913 10926 10920 10923 10929 10930 10935 10941 10944 10940 10936 10946 10946 10949 10949 10947 10950 10953 10957 10959 10961 10961 10960 10961 10964 10965 10964 10965 10967 10967 10974 10976
10864 10871 10875 10880 10885 10890 10890 10894 10900 10907 10907 10910 10908 10918 10913 10915 10917 10917 10921 10933 10947 10942 10932 10939 10939 10941 10943 10945 10944 10946 10951 10953 10955 10957 10959 10961 10963 10965 10965 10964 10966 10967 10965 10966
10853 10859 10866 10871 10870 10875 10881 10888 10893 10898 10901 10900 10902 10898 10911 10909 10909 10911 10920 10926 10932 10932 10927 10932 10932 10933 10933 10940 10939 10939 10943 10946 10949 10954 10956 10957 10959 10963 10965 10965 10962 10962 10963 10961
10848 10853 10857 10858 10864 10870 10875 10881 10886 10891 10893 10895 10893 10890 10886 10898 10908 10914 10913 10919 10921 10919 10917 10922 10926 10927 10926 10931 10933 10932 10935 10938 10940 10944 10948 10951 10953 10956 10957 10960 10959 10958 10956 10952
10842 10847 10849 10850 10856 10860 10868 10874 10877 10882 10886 10890 10889 10887 10884 10893 10898 10905 10910 10913 10914 10915 10911 10917 10920 10921 10920 10922 10924 10925 10928 10931 10932 10935 10940 10943 10947 10950 10951 10953 10955 10954 10952 10949
10829 10831 10837 10843 10845 10848 10858 10867 10869 10874 10877 10882 10885 10883 10877 10890 10898 10902 10905 10909 10906 10906 10908 10912 10917 10918 10914 10916 10917 10918 10922 10925 10927 10929 10933 10936 10941 10945 10946 10949 10951 10950 10949 10947
10817 10819 10824 10830 10832 10843 10849 10854 10857 10865 10870 10874 10877 10876 10876 10874 10889 10902 10901 10900 10899 10899 10897 10907 10912 10913 10914 10912 10912 10914 10918 10920 10924 10924 10927 10932 10935 10938 10940 10943 10946 10947 10947 10946
10801 10808 10818 10823 10828 10838 10840 10843 10849 10854 10861 10864 10865 10870 10875 10874 10885 10887 10888 10891 10891 10894 10895 10900 10906 10909 10908 10909 10910 10910 10913 10915 10919 10921 10923 10926 10930 10932 10934 10936 10939 10943 10947 10947
10785 10799 10808 10814 10821 10826 10826 10836 10839 10847 10851 10861 10864 10863 10868 10873 10878 10879 10881 10881 10883 10887 10889 10892 10899 10901 10901 10903 10906 10906 10908 10911 10915 10918 10919 10922 10924 10927 10928 10929 10933 10937 10940 10945
10769 10789 10796 10800 10809 10816 10818 10824 10827 10834 10846 10852 10853 10856 10862 10862 10867 10872 10873 10875 10881 10882 10884 10887 10890 10895 10894 10898 10901 10903 10905 10907 10909 10912 10914 10916 10918 10919 10920 10922 10925 10928 10934 10940
10757 10776 10786 10788 10801 10807 10810 10816 10822 10831 10835 10844 10846 10850 10858 10862 10862 10865 10867 10869 10874 10875 10878 10881 10883 10889 10890 10892 10896 10898 10899 10901 10905 10907 10909 10910 10911 10912 10914 10917 10918 10922 10927 10935
10743 10757 10767 10780 10794 10793 10802 10809 10814 10823 10826 10831 10835 10839 10846 10853 10857 10860 10863 10863 10868 10870 10872 10873 10878 10882 10882 10884 10888 10891 10894 10898 10901 10904 10904 10905 10906 10908 10909 10911 10913 10918 10924 10931
10728 10745 10761 10771 10786 10789 10791 10801 10810 10811 10815 10820 10826 10830 10836 10842 10850 10853 10856 10857 10860 10863 10864 10868 10870 10874 10876 10878 10881 10885 10890 10894 10898 10900 10901 10901 10903 10905 10905 10907 10911 10916 10923 10929
10718 10737 10753 10762 10765 10777 10799 10804 10808 10810 10811 10815 10816 10824 10829 10832 10840 10848 10847 10850 10852 10854 10855 10860 10862 10864 10868 10871 10876 10881 10887 10892 10896 10897 10897 10898 10899 10902 10904 10909 10913 10918 10923 10926
10699 10718 10731 10744 10771 10790 10801 10798 10802 10807 10807 10806 10811 10821 10824 10824 10833 10840 10837 10842 10844 10845 10848 10851 10854 10856 10860 10866 10870 10875 10881 10885 10888 10890 10892 10894 10898 10903 10906 10910 10916 10920 10923 10926